Regional Weather Roundup
Issued by NWS Kansas City/Pleasant Hill, MO

Home | Current Version | Previous Version | Graphics & Text | Print | Product List | Glossary Off
Versions: 1 2 3 4 5 6 7 8 9 10 11 12 13 14 15 16 17 18 19 20 21 22 23 24 25 26 27 28 29 30 31 32 33 34 35 36 37 38 39 40 41 42 43 44 45 46 47 48 49 50

000
ASUS43 KEAX 290410
RWREAX

WEATHER ROUNDUP FOR EASTERN KANSAS AND NORTHWEST MISSOURI
NATIONAL WEATHER SERVICE KANSAS CITY/PLEASANT HILL MO
1100 PM CDT SAT MAY 28 2016

KSZ040-057-103>105-MOZ028-029-037-043-290500-
...KANSAS CITY METROPOLITAN AREA...

CITY           SKY/WX    TMP DP  RH WIND       PRES   REMARKS
K.C. INTL      CLEAR     65  59  81 SW6       30.00R
K.C. DOWNTOWN  CLEAR     70  59  68 SW5       29.99R
LEES SUMMIT    CLEAR     67  60  78 S5        30.02R
OLATHE - IXD   CLEAR     67  60  78 SW5       30.02R
OLATHE - OJC   CLEAR     67  58  72 CALM      30.02R
LAWRENCE       CLEAR     61  59  93 CALM      30.00R

$$

MOZ001>008-011>017-020>025-030>033-038>040-044>046-053-054-290500-
...NORTHERN AND CENTRAL MISSOURI...

CITY           SKY/WX    TMP DP  RH WIND       PRES   REMARKS
ST. JOSEPH     CLEAR     67  61  81 SW7       29.98R
MOSBY          CLEAR     63  63 100 CALM      30.00R
WARRENSBURG    CLEAR     66  61  82 CALM      30.02R
WHITEMAN AFB   NOT AVBL
CLINTON        CLEAR     64  64 100 CALM      30.02R
SEDALIA        CLEAR     70  62  76 SW3       30.02R
WARSAW         NOT AVBL
CHILLICOTHE      N/A     64  61  90 S3        29.99R
KIRKSVILLE     CLEAR     64  58  80 SW6       29.99R

$$

MOZ041-047>049-056>058-063>065-088>090-097-290500-
...EASTERN AND SOUTHERN MISSOURI...

CITY           SKY/WX    TMP DP  RH WIND       PRES   REMARKS
ST. LOUIS INTL CLOUDY    77  65  66 SW10      29.98S
SPIRIT OF STL  CLOUDY    72  61  68 W6        29.98R
COLUMBIA       CLEAR     70  62  76 W7        30.01R
JEFFERSON CITY CLEAR     72  62  71 E3        30.00R
ROLLA          MOCLDY    65  62  90 SE3       30.02R
SPRINGFIELD    CLEAR     65  60  84 SW5       30.04R
JOPLIN         CLEAR     67  63  87 S5        30.03R
WEST PLAINS    CLEAR     72  65  78 S7        30.06R

$$

IAZ060-094-KSZ022-034>040-054-083-096-NEZ052-066-093-290500-
...KANSAS...SOUTHEAST NEBRASKA AND IOWA...

CITY           SKY/WX    TMP DP  RH WIND       PRES   REMARKS
TOPEKA         CLEAR     65  60  84 CALM      30.00R
MANHATTAN      CLEAR     64  58  80 SW3       30.01R
EMPORIA        CLEAR     64  59  83 SW5       30.02R
CHANUTE        CLEAR     66  62  87 S5        30.02R
WICHITA        CLEAR     67  58  72 CALM      30.02R
OMAHA          CLEAR     65  56  72 W8        29.96R
LINCOLN        CLEAR     64  57  78 CALM      29.99R
FALLS CITY     CLEAR     67  60  78 SW7       29.97R
LAMONI         PTCLDY    63  59  87 SW9       29.95R
DES MOINES     PTCLDY    66  55  67 SW9       29.89R

$$




USA.gov is the U.S. government's official web portal to all federal, state and local government web resources and services.